FREGAT R/B, 54378

Orbit data source: Space-Track

FREGAT R/B, 54378 is space debris in MEO originally from a launch on Mon, 28 Nov 2022 UTC launched from the Plesetsk Missile And Space Complex (PKMTR). Debris objects in space refer to the collection of defunct objects orbiting the Earth. Examples of debris include non-operational satellites, rocket bodies, and fragments generated from explosions, collisions, or faulty payload assembly.

Loading next visibility...
Identifier
54378, 2022-161B
Orbit
MEO
Country
Flag of CISCIS
Related business
Manufacturer
Lavochkin
Mission
Spacecraft
Bus & Motor
FREGAT, Unknown motor
Mass
1,000 kg wet, 1,000 kg dry
Launch date (UTC)
2022-11-28 (4 years ago)
Launch vehicle
Unknown
Launch site
Plesetsk Missile And Space Complex (PKMTR)
Object type
Payload
Rocket body
Debris
Shape & HBR
Cyl, 1.7 m
Radar Cross Section
8.354 m², Large (>1 m²)

Expand to show TLE details & history
Last TLE update: 1 week ago

TLE from 1 week ago
0 FREGAT R/B
1 54378U 22161B   26164.20893129  .00000118  00000-0  00000-0 0  9992
2 54378  64.6929 194.7601 0073344 127.9882 232.7556  2.08586115 26724
Epoch: 2026-06-13T05:00Z
TLE epoch observation values (Epoch: 2026-06-13T05:00:51.663Z)
Latitude
Longitude
-141.97947°
Altitude
19,613.096 km
Speed
3.907 km/s
True Right ascension
12h 59m 03s
True Declination
0° 00' 00"
Sunlit
Object was in daylight at epoch
Visualization orbit readout
Latitude
Unknown
Longitude
Unknown
Altitude
Unknown
Speed
Unknown
Apparent Right ascension
Unknown
Apparent Declination
Unknown
Sunlit
N/A
Visualization observer readout
Local Sidereal Time
21:42:17
Azimuth
Unknown
Elevation
Unknown
Doppler factor
Unknown
Orbital elements
Apogee altitude
19,686.142 km
Perigee altitude
19,306.594 km
Semi-major axis
25,874.505 km
Eccentricity
0.00733
Inclination
64.6929°
RAAN
194.7601°
Arg. of periapsis
127.9882°
True anomaly
232.09025°
Mean anomaly
232.7556°
Eccentric anomaly
232.42256°
Mean motion
0.52148 °/min
Orbital period
690.35 mins
BSTAR
0
Loading maneuver chart data...
Computing Atmospheric mass density...
Loading historical data...
Loading historical data...
Loading historical data...
Loading historical data...
Loading historical data...
Loading historical data...
Loading historical data...
Other satellites on launch #161 in the year 2022 (2022-11-28 UTC)

Documentation

Showing up to 5 results
|